Theta_e
316 315 317 321 337 344 348 348 345 345 351 354 347 351 352 354 355 360 346 338 343 348 351 349 343 339 329 327 328 330 330 332 335 337 338 338 336 336 337 338 338 335 337 339 338 337 337 337 337
316 317 318 322 336 337 345 344 347 346 354 351 351 354 357 360 352 348 341 343 344 346 350 351 344 342 333 329 327 327 328 330 331 331 332 332 333 334 334 334 334 335 336 335 333 333 334 335 336
317 317 324 328 332 329 337 344 346 349 353 353 354 353 355 356 349 346 344 341 342 341 346 347 342 340 336 331 330 331 330 330 329 328 329 331 331 331 332 333 333 332 332 333 336 338 340 340 339
316 320 320 326 328 326 339 343 350 356 353 352 354 358 353 352 349 347 342 339 337 340 345 339 339 338 336 334 333 334 333 332 331 330 329 329 330 331 332 331 336 341 342 340 340 340 337 335 336
316 319 325 325 324 330 339 341 351 355 354 353 351 356 356 352 346 341 337 337 336 339 343 345 336 334 333 332 331 329 328 328 329 329 330 330 331 331 336 344 345 341 340 338 338 334 330 329 334
323 320 325 326 325 339 344 341 349 352 353 354 352 353 356 351 342 338 337 336 336 337 339 340 330 328 328 327 328 328 329 331 335 337 337 337 337 339 345 339 336 333 329 330 328 326 324 323 322
323 323 323 322 326 344 344 344 347 353 355 354 351 353 356 351 343 340 336 336 338 339 339 340 337 329 328 329 330 334 337 336 334 334 336 340 343 343 340 330 325 322 322 322 322 320 320 319 319
320 321 322 320 322 331 345 346 347 351 353 351 349 351 355 352 347 346 340 339 340 340 339 339 338 340 339 338 336 336 336 334 331 331 330 330 333 330 324 320 319 319 320 320 320 320 320 320 320
315 324 329 327 323 328 345 345 344 340 351 351 350 351 350 352 349 348 343 342 342 342 341 341 341 341 341 342 336 329 326 321 325 324 324 324 324 322 317 319 320 323 324 325 325 325 324 323 323
321 324 329 324 323 337 345 345 346 344 350 350 350 352 352 351 351 348 344 342 342 342 341 342 342 340 340 339 335 323 321 325 320 321 320 318 317 318 320 323 324 325 326 327 327 327 326 327 327
319 323 321 324 328 338 345 345 343 342 348 346 346 354 353 352 352 349 344 340 342 339 340 341 335 333 338 334 329 325 321 319 320 322 323 324 325 324 324 325 326 326 327 327 327 327 328 329 329
321 321 320 321 323 338 342 345 345 342 344 344 347 350 352 354 353 351 346 340 342 341 338 338 335 328 331 335 326 323 323 322 322 322 323 323 324 324 325 327 327 328 328 328 328 327 327 326 326
320 322 320 320 318 329 338 344 346 343 342 344 345 352 352 353 352 351 349 341 342 343 337 336 333 331 329 327 328 325 325 325 324 324 324 324 325 325 326 328 328 327 325 324 324 323 323 323 322
321 320 321 321 318 321 334 340 342 342 341 347 348 354 352 352 352 352 351 345 342 345 340 336 331 328 329 330 329 328 328 328 326 326 327 327 326 326 326 325 324 322 320 319 318 318 318 317 317
321 323 321 320 319 324 328 334 340 338 342 345 351 354 353 352 352 352 351 350 344 346 344 339 337 334 330 330 331 330 328 328 326 327 326 326 325 324 323 321 320 318 316 315 315 314 313 313 312
322 322 324 322 328 330 333 330 332 339 345 346 349 352 353 353 352 352 352 351 348 345 348 339 339 338 332 333 332 327 326 327 327 325 324 322 321 320 318 316 315 313 312 312 311 310 310 310 310
323 325 325 324 321 335 331 334 333 340 347 348 349 351 352 353 352 351 350 350 349 345 346 344 339 338 340 336 329 327 327 325 323 321 320 318 316 314 312 312 311 310 310 309 309 309 309 310 310
323 325 324 325 323 324 329 330 329 338 346 348 348 350 350 351 351 347 347 346 346 340 337 338 338 334 334 331 327 325 323 321 320 318 317 314 311 309 307 309 309 309 309 309 309 309 309 309 309
322 322 323 323 322 322 325 325 324 328 344 346 348 349 349 349 346 343 339 336 332 330 331 332 329 326 329 328 326 326 322 319 316 313 311 308 306 307 308 308 308 308 308 308 308 308 308 309 309
320 323 324 324 322 323 324 327 324 326 335 340 345 346 346 345 334 330 330 330 330 330 330 327 327 329 329 329 327 325 321 317 315 314 308 306 307 307 307 307 307 307 307 308 308 307 306 307 307
323 324 326 325 324 322 324 327 326 323 335 340 336 336 336 335 334 330 330 330 327 326 324 324 326 327 326 324 322 320 318 318 314 308 307 307 306 306 307 307 307 307 307 307 305 305 305 305 306
326 323 324 324 326 326 323 326 326 323 329 328 339 338 337 334 330 330 330 326 322 320 319 320 320 319 318 319 319 318 314 312 308 306 307 307 306 306 307 307 307 308 307 306 306 306 306 306 306
324 322 323 325 326 326 325 325 326 327 329 330 340 337 332 331 330 331 326 322 319 317 316 316 318 318 318 319 319 315 311 308 306 306 307 307 307 307 307 307 308 308 307 306 306 305 305 305 305
322 324 324 324 326 327 325 326 326 332 332 334 338 334 330 326 324 321 319 318 316 315 315 315 316 315 315 317 318 313 306 306 307 306 306 306 306 306 307 307 307 307 307 307 306 305 304 305 304
323 327 327 328 327 327 324 326 327 332 335 339 337 333 328 324 322 321 319 318 316 315 314 313 311 309 308 306 306 306 306 305 305 305 306 306 306 305 305 305 305 306 308 307 306 306 306 306 305
324 327 330 328 327 325 324 328 331 332 336 336 332 328 324 322 321 321 318 316 315 314 313 311 309 307 306 307 306 305 304 304 305 305 305 305 305 305 305 305 305 306 308 307 306 306 307 306 307
324 327 325 328 324 326 325 331 332 334 336 334 333 329 326 322 319 318 316 315 315 312 310 308 308 307 307 306 305 305 305 305 306 305 305 305 305 305 305 305 304 305 307 307 306 307 308 307 307
324 322 328 328 331 329 326 328 331 335 335 336 335 333 326 321 319 317 316 313 310 309 308 306 306 306 305 305 305 304 305 305 305 305 305 305 304 304 305 305 305 304 305 307 307 306 307 309 308
323 324 325 328 328 332 330 328 330 334 334 337 336 333 327 323 320 317 313 311 309 307 307 306 305 305 304 303 303 305 305 304 304 304 304 304 305 304 302 303 306 304 303 304 306 306 306 307 307
322 325 329 328 334 330 331 329 328 333 332 333 335 331 325 322 319 316 313 311 310 307 306 305 304 305 304 304 304 304 303 304 304 303 302 301 302 302 301 303 305 305 305 303 304 306 306 306 306
Wind_Speed
1 1 4 2 3 1 3 4 2 2 2 2 8 4 4 3 1 3 3 6 14 14 13 12 12 12 13 14 15 16 16 14 14 12 11 9 8 7 6 6 5 5 5 6 5 5 5 5 5
1 7 2 1 2 2 3 3 7 3 3 7 9 5 4 2 3 6 10 9 14 15 13 12 14 13 13 14 14 14 13 12 11 10 9 8 7 6 5 4 4 3 4 4 4 4 4 5 5
4 4 2 0 1 1 2 6 6 6 4 3 4 6 3 2 3 8 6 15 15 14 13 13 13 12 13 13 13 13 12 11 10 9 8 7 5 4 4 3 3 3 3 3 4 4 5 5 6
4 3 2 2 0 3 2 5 8 12 2 4 8 7 4 3 5 6 15 17 16 14 12 13 14 14 13 13 13 12 11 10 9 8 7 6 5 4 3 3 3 3 3 4 4 4 5 6 7
3 1 1 1 0 0 1 5 11 10 4 6 4 6 5 3 5 15 17 15 15 15 13 12 14 13 13 12 12 11 11 10 9 8 7 5 4 3 3 3 3 3 3 4 4 5 5 6 6
2 1 2 0 2 1 1 9 11 7 6 7 6 9 6 3 11 13 12 12 13 14 14 13 14 13 13 13 12 12 10 9 7 6 5 4 4 4 4 3 2 3 4 4 5 5 5 5 6
1 1 2 1 3 2 4 10 13 8 9 6 11 9 2 8 10 13 13 12 11 11 12 12 12 13 12 12 11 10 9 9 8 6 6 5 5 5 3 1 2 3 3 3 4 5 6 6 7
3 1 4 2 1 3 6 7 6 6 7 8 8 5 6 14 16 13 12 11 11 11 11 12 13 12 12 11 11 11 10 9 8 7 7 7 7 6 5 4 3 3 4 5 7 9 9 10 11
1 2 4 4 5 3 8 9 5 3 9 5 9 4 5 18 17 14 12 11 11 11 12 12 12 13 13 12 12 11 11 10 10 9 8 6 6 5 4 2 2 4 6 8 10 11 13 15 17
1 2 4 3 3 3 12 10 11 8 9 8 9 4 16 22 18 16 15 16 16 15 15 14 14 16 15 13 13 13 13 10 11 10 8 6 5 4 2 2 4 7 11 13 15 16 18 18 16
3 2 4 5 5 4 11 10 9 9 10 15 18 13 20 22 19 17 17 17 16 17 16 17 20 19 16 15 15 13 13 13 11 8 6 5 3 3 5 7 9 12 14 15 17 19 16 17 18
3 6 5 1 7 6 8 10 12 15 5 14 11 15 21 19 21 20 18 18 19 19 18 18 21 24 20 14 15 13 12 12 9 7 6 6 7 8 9 11 14 14 14 16 15 15 17 18 18
4 4 4 9 6 11 7 14 12 17 8 8 12 17 20 18 21 20 19 17 17 20 21 21 22 20 20 18 15 14 12 9 8 6 6 8 9 10 11 12 12 14 16 14 16 16 18 19 19
4 7 8 5 4 5 9 9 9 13 15 8 16 19 20 20 25 22 21 21 21 21 22 22 23 23 20 18 16 13 11 9 7 4 4 5 7 9 11 13 14 15 16 16 16 17 19 21 21
2 5 1 2 3 4 10 5 16 12 15 16 17 16 19 20 24 27 28 26 25 26 24 23 20 19 21 18 14 12 8 6 4 2 1 4 7 10 12 13 15 16 18 18 18 19 20 22 23
1 1 2 4 3 4 2 7 14 9 14 17 16 15 17 21 28 27 26 26 24 25 24 25 19 18 20 17 12 8 6 5 4 3 3 6 8 11 13 13 14 17 16 17 18 20 22 23 23
2 3 2 2 2 7 6 3 1 12 13 14 16 16 17 18 21 25 27 27 26 26 21 19 22 15 17 14 10 8 8 7 5 5 7 9 12 15 16 14 14 18 16 17 18 20 20 22 23
5 4 2 2 4 4 7 11 8 7 14 17 17 16 17 19 23 22 25 24 21 16 16 17 18 15 14 13 11 10 8 7 7 8 10 13 14 17 18 14 16 16 17 18 18 19 19 20 21
3 1 2 4 2 4 7 8 6 5 13 18 19 16 18 21 13 12 16 12 8 3 10 13 12 12 12 11 11 8 6 6 7 10 15 17 19 19 17 15 16 16 16 17 17 18 19 20 20
5 5 7 5 1 4 2 6 2 3 7 14 12 12 11 8 4 1 4 5 5 8 11 13 14 13 12 10 9 7 5 3 5 14 17 18 18 17 15 16 17 17 18 17 17 16 18 18 19
6 8 6 5 1 2 4 4 4 4 4 5 7 8 6 6 6 7 10 11 12 15 15 20 18 17 17 15 13 10 4 7 11 17 15 15 16 17 17 16 16 17 16 17 17 16 16 18 19
5 8 8 5 4 3 2 3 2 7 10 11 12 11 12 11 5 9 13 14 16 18 19 24 26 24 21 18 14 11 10 7 10 11 10 11 14 15 15 14 16 16 17 16 16 15 16 16 18
1 1 5 4 4 2 1 3 3 5 5 9 12 12 12 13 7 7 11 15 17 19 21 24 28 25 19 13 10 7 8 10 7 7 8 10 11 12 14 15 17 19 19 17 16 17 17 16 16
7 4 5 3 1 4 2 3 2 2 3 6 7 9 9 8 8 9 12 16 17 16 16 16 20 18 14 11 7 4 7 4 5 7 9 10 10 13 15 19 19 17 17 17 17 18 18 20 18
4 3 2 4 4 3 2 2 2 2 0 2 2 3 5 5 5 9 13 15 15 13 11 10 10 13 11 11 13 10 8 9 6 7 8 9 11 13 16 18 19 16 17 17 17 18 20 20 20
4 4 3 4 4 1 2 3 2 1 4 3 3 3 4 5 6 10 13 12 11 9 8 8 9 10 10 11 12 12 8 11 4 5 7 8 10 12 14 17 17 17 17 18 18 17 17 19 22
5 4 3 6 2 3 1 2 5 6 4 4 5 5 6 8 8 10 11 10 9 9 9 9 9 9 9 10 10 9 8 6 4 7 9 10 12 13 14 15 16 17 15 17 18 16 18 19 21
2 9 4 2 4 6 4 3 5 10 8 8 8 8 7 8 10 9 10 9 8 8 8 8 9 8 8 10 9 7 4 5 7 10 12 12 13 13 14 15 14 17 16 15 16 16 17 19 19
4 4 4 3 0 4 4 4 3 12 12 11 9 8 9 11 11 10 10 8 7 7 6 7 7 9 8 7 5 4 5 9 10 11 12 13 14 13 14 13 13 15 18 18 16 19 17 17 21
1 4 5 4 5 1 1 2 2 7 8 9 8 9 10 11 11 11 10 8 6 6 7 8 7 6 6 5 5 5 7 8 9 11 14 15 15 14 13 11 12 14 15 18 16 17 17 18 20
Wind_Direction
115 201 171 174 223 141 135 189 287 171 91 67 136 192 182 50 350 5 113 122 134 134 138 142 144 139 139 137 134 131 132 135 136 136 134 129 125 119 114 106 89 71 60 53 45 39 32 23 12
110 136 142 177 239 181 127 178 209 192 57 127 123 120 86 63 65 102 133 129 138 141 142 144 151 147 142 139 133 130 130 131 130 130 131 133 134 129 120 106 91 69 48 38 29 21 14 8 0
134 176 259 150 105 32 100 197 156 144 92 122 127 57 50 40 99 139 142 142 142 141 143 150 149 145 141 138 135 131 130 134 139 144 146 144 140 132 119 101 73 46 33 22 23 18 7 360 353
161 169 118 264 224 86 54 162 144 146 137 55 115 86 99 347 148 158 146 148 143 142 142 149 149 148 146 145 142 138 134 136 136 135 137 139 140 131 117 91 67 47 43 27 12 12 1 349 343
68 198 187 152 360 349 206 168 156 151 136 139 157 133 119 125 120 144 149 154 151 146 145 153 150 150 147 142 138 136 137 138 137 136 138 141 138 130 119 96 74 44 17 357 347 344 350 355 357
158 283 206 136 75 38 98 154 159 163 158 149 127 133 130 152 148 149 150 153 155 151 152 155 151 147 145 145 145 144 145 143 140 139 135 135 136 132 117 96 44 16 359 353 345 345 345 348 345
200 186 133 284 40 106 128 153 169 156 158 164 144 150 108 177 161 157 159 159 157 158 158 159 156 155 153 151 152 150 150 139 131 123 124 124 131 136 131 93 62 48 26 3 345 330 320 322 328
110 128 150 203 183 109 141 157 174 167 159 143 175 163 175 181 165 161 154 159 164 169 167 168 165 164 159 160 157 155 151 147 143 132 124 124 135 141 136 118 82 50 7 346 336 327 315 304 305
172 179 139 143 176 135 170 180 180 132 150 182 182 158 173 157 159 155 157 169 179 179 177 178 175 169 168 164 163 159 158 151 146 141 134 128 136 133 114 96 28 349 331 323 313 308 307 300 296
183 207 179 191 180 180 178 189 163 173 162 203 197 123 146 155 165 170 181 185 187 182 182 183 180 178 174 168 165 162 157 152 146 147 138 133 136 149 177 247 273 291 298 299 298 296 295 299 297
149 204 202 216 204 169 177 181 176 174 195 201 201 175 162 166 176 185 194 194 189 183 184 188 186 181 178 175 170 167 163 159 158 159 163 171 193 237 270 287 294 294 298 300 299 298 299 295 296
233 237 219 240 195 173 183 175 195 201 204 206 201 178 170 175 184 191 196 198 193 189 191 191 190 188 185 179 178 179 174 171 173 188 208 238 264 283 296 303 305 308 308 308 308 305 300 300 298
233 267 224 259 228 226 184 194 189 219 225 215 191 177 183 182 191 198 203 208 202 201 198 197 196 194 191 189 191 192 192 193 201 219 253 273 286 294 305 310 314 312 311 312 312 309 307 305 303
214 259 275 295 297 196 197 194 198 228 204 195 190 187 188 188 192 196 204 210 210 210 208 202 201 201 202 202 204 208 211 216 220 243 276 296 313 319 321 321 320 320 320 320 318 314 311 306 304
266 291 318 78 131 161 162 191 220 213 195 199 198 190 192 197 196 203 205 211 212 214 212 211 208 208 206 211 217 225 224 210 206 197 290 321 325 327 325 322 320 318 317 316 316 313 309 306 304
263 258 183 63 165 131 235 196 230 192 184 207 205 196 197 203 205 208 211 217 217 219 219 216 210 214 213 213 220 215 191 168 134 79 22 350 339 330 327 324 323 318 320 318 315 315 312 308 306
44 194 156 98 38 153 225 241 331 181 191 209 205 205 206 212 214 212 214 220 220 224 224 217 218 215 215 213 198 170 142 121 94 52 13 353 342 336 335 332 328 326 323 321 321 317 315 313 310
208 190 200 202 180 200 208 239 255 204 205 218 213 208 212 217 220 211 219 224 227 226 221 222 221 228 210 188 157 134 112 84 52 21 358 346 345 339 339 334 330 332 326 322 321 321 317 313 312
147 174 265 266 275 248 218 253 267 187 223 229 225 212 218 223 228 227 227 230 204 192 200 212 207 174 159 146 135 117 94 65 39 17 355 348 345 344 344 339 334 331 325 319 321 320 319 318 319
188 208 226 266 248 209 210 263 256 283 257 253 252 248 260 265 272 221 151 141 118 132 139 145 145 144 138 137 124 118 123 83 1 346 342 345 350 351 351 344 338 332 326 323 323 325 325 319 317
206 213 209 238 120 88 302 229 17 33 56 97 56 25 19 358 279 174 145 130 121 118 124 126 125 122 121 115 110 108 80 357 339 347 350 352 357 357 352 346 339 335 331 328 327 328 320 314 314
230 218 247 205 186 252 319 279 66 2 71 44 22 13 0 340 278 162 142 128 125 122 123 125 124 119 114 113 102 73 42 9 337 348 347 352 0 2 353 345 340 337 341 330 326 321 314 308 304
312 293 183 165 141 235 126 262 103 6 38 12 9 11 13 18 66 109 120 125 124 126 124 120 119 116 115 109 88 62 36 350 342 345 355 355 354 358 355 350 346 346 341 327 321 321 317 309 301
156 112 76 84 113 246 55 290 155 12 320 320 6 23 29 42 71 92 106 112 110 113 114 115 120 120 127 132 108 41 63 74 25 348 358 352 351 356 360 358 350 341 334 331 330 328 321 315 305
161 153 143 202 215 276 79 226 348 2 130 278 324 43 49 57 88 120 123 120 119 110 102 96 101 102 97 90 83 84 88 72 42 356 353 340 350 347 357 350 343 339 340 335 333 333 334 330 314
176 203 175 213 220 204 135 218 128 63 123 147 136 125 110 102 122 124 120 118 118 112 99 91 85 81 72 72 80 79 71 65 36 345 344 339 332 334 328 323 336 350 342 339 343 332 329 328 326
149 191 83 113 71 240 187 225 213 169 178 184 189 180 148 131 135 134 131 129 111 93 76 68 69 72 76 78 78 67 52 46 351 340 334 323 321 315 315 322 337 351 341 344 348 343 341 336 336
207 135 153 130 192 238 187 235 235 202 212 211 213 203 161 147 149 148 136 116 102 89 75 67 69 76 73 71 64 47 6 2 349 344 331 316 316 315 318 322 328 347 347 341 345 346 346 350 350
147 178 67 100 305 238 236 221 203 188 198 204 211 193 174 168 164 154 142 129 108 91 80 71 71 67 64 62 52 41 356 1 349 339 321 316 312 320 319 321 326 336 344 346 339 345 342 345 351
237 169 171 224 190 169 274 203 196 174 181 201 204 188 176 172 167 160 149 131 110 89 80 80 76 63 50 35 24 17 8 357 351 336 331 326 323 314 315 331 328 325 330 336 339 335 342 345 352